Location: Newark
(36.0797°N, 3.9744°E)
Time: 12:09:55
(UTC+00:00)

Tiros 1 - Pass Details

Date: 10 December 2019
Orbit: 630 x 664 km, 48.4° (Epoch: 18 January)

Event Time Altitude Azimuth Distance (km) Brightness Sun altitude
Exits shadow 04:02:03 14° 161° (SSE) 1,785 9.6 -31.8°
Maximum altitude 04:04:04 18° 131° (SE) 1,579 9.6 -31.4°
Drops below altitude 10° 04:07:14 10° 88° (E) 2,039 10.6 -30.8°
Sets 04:10:11 0° 70° (ENE) 2,945 11.4 -30.2°
